This is the latest recevied weather packets stored in our database for station/object ZS1OSS-13. If no packets are shown the sender has not sent any weather packets the latest 10 day(s).
| Time | Temp. | Humidity | Pressure | Rain* | Wind** | Luminosity | Snow |
|---|---|---|---|---|---|---|---|
| 1778232133 | 18.89° C | 64% | 1018.4 hPa | 0 mm | - | 508 W/m² | - |
| 1778231830 | 19.44° C | 64% | 1018.5 hPa | 0 mm | - | 496 W/m² | - |
| 1778231527 | 18.89° C | 64% | 1018.6 hPa | 0 mm | - | 483 W/m² | - |
| 1778231225 | 18.89° C | 65% | 1018.7 hPa | 0 mm | - | 486 W/m² | - |
| 1778230922 | 18.89° C | 64% | 1018.8 hPa | 0 mm | - | 475 W/m² | - |
| 1778230618 | 18.89° C | 63% | 1018.7 hPa | 0 mm | - | 461 W/m² | - |
| 1778230315 | 18.89° C | 65% | 1018.9 hPa | 0 mm | - | 440 W/m² | - |
| 1778230011 | 18.33° C | 67% | 1018.9 hPa | 0 mm | - | 400 W/m² | - |
| 1778229709 | 18.33° C | 67% | 1019 hPa | 0 mm | - | 382 W/m² | - |
| 1778229406 | 18.33° C | 68% | 1018.9 hPa | 0 mm | - | 382 W/m² | - |
| 1778229104 | 18.33° C | 68% | 1018.9 hPa | 0 mm | - | 361 W/m² | - |
| 1778228799 | 17.78° C | 69% | 1019 hPa | 0 mm | - | 346 W/m² | - |
| 1778228496 | 17.78° C | 69% | 1019 hPa | 0 mm | - | 333 W/m² | - |
| 1778228194 | 17.78° C | 70% | 1019 hPa | 0 mm | - | 329 W/m² | - |
| 1778227890 | 17.22° C | 71% | 1019.2 hPa | 0 mm | - | 317 W/m² | - |
| 1778227587 | 17.22° C | 72% | 1019 hPa | 0 mm | - | 301 W/m² | - |
| 1778227286 | 16.67° C | 72% | 1019 hPa | 0 mm | - | 289 W/m² | - |
| 1778226981 | 16.67° C | 72% | 1019.2 hPa | 0 mm | - | 255 W/m² | - |
| 1778226679 | 16.11° C | 73% | 1019 hPa | 0 mm | - | 232 W/m² | - |
| 1778226376 | 16.11° C | 73% | 1019 hPa | 0 mm | - | 237 W/m² | - |
| 1778226073 | 16.11° C | 73% | 1019 hPa | 0 mm | - | 226 W/m² | - |
| 1778225770 | 15.56° C | 75% | 1019.4 hPa | 0 mm | - | 212 W/m² | - |
| 1778225468 | 15° C | 77% | 1019.3 hPa | 0 mm | - | 200 W/m² | - |
| 1778225163 | 15° C | 77% | 1019.4 hPa | 0 mm | - | 186 W/m² | - |
| 1778224861 | 15° C | 77% | 1019.3 hPa | 0 mm | - | 176 W/m² | - |
* Rain latest hour (hover to see other rain measurements)
** Current wind speed in m/s (hover to see current wind gust speed)